7 * 24
多渠道服务支持
STARLINK-11182是美国太空探索技术公司(SpaceX)于2024年8月10日发射的星链(Starlink)低轨互联网星座卫星,归属美国。该卫星承载星链项目全球高速互联网覆盖目标,运行于近地轨道,为全球用户提供宽带网络服务,进一步扩充了星链星座的在轨卫星规模,推进星链星座组网进程。
美国
(US)
| 数据来源 | 国际轨道数据 |
| 星历时间: | 2026-05-24T09:34:22+0800 1天前 查看轨道信息 |
| 半长轴: | 6737.862km |
| 偏心率: | 0.0000805 |
| 轨道倾角: | 53.158° |
| 近地点辐角 | 68.615° |
| 升交点赤经 | 74.530° |
| 平近点角 | 291.495° |
| 近地点: | 359.182km |
| 远地点: | 360.268km |
| 周期: | 91.737分钟 |
| 每日圈数: | 15.697108 |